User: anonymous   Login
Location: Newark
(43.6583°N, 1.6617°E)
Time: 23:16:38
(UTC+00:00)
Language:

Vanguard 2 - Orbit

View from above orbital plane
View from above orbital plane
View from above satellite
View from above satellite

Ground track
Ground track

The orbit data is extracted from the following two-line orbital elements,

1    11U 59001A   19233.79843348 -.00000077  00000-0 -44894-4 0  9990
2    11  32.8698 104.1351 1467541 354.2172   4.3023 11.85609749581025
Epoch (UTC): 21 August 2019 19:09:44
Eccentricity: 0.1467541
inclination: 32.8698°
perigee height: 554 km
apogee height: 2938 km
right ascension of ascending node: 104.1351°
argument of perigee: 354.2172°
revolutions per day: 11.85609749
mean anomaly at epoch: 4.3023°
orbit number at epoch: 58102

The dashed part of the orbit path shows where the satellite is in the earth's shadow,  

DLR